| time (UTC) | temp F | wind direction | speed MPH | gust MPH | rain 1hr in | rain 24hr in | rain mn in | humidity % | barometer mb |
| 20260905225705 | 88 | 30 | 1.0 | 2.0 | 0.00 | 0.02 | 0.02 | 67 | 1009.7 |
| 20260905225204 | 88 | 32 | 0.0 | 2.0 | 0.00 | 0.02 | 0.02 | 66 | 1009.8 |
| 20260905224705 | 89 | 38 | 0.0 | 2.0 | 0.00 | 0.02 | 0.02 | 66 | 1009.8 |
| 20260905224204 | 89 | 47 | 0.0 | 3.0 | 0.00 | 0.02 | 0.02 | 65 | 1010.0 |
| 20260905223704 | 89 | 57 | 0.0 | 3.0 | 0.00 | 0.02 | 0.02 | 64 | 1010.0 |
| 20260905223205 | 90 | 61 | 0.0 | 0.0 | 0.00 | 0.02 | 0.02 | 63 | 1010.0 |
| 20260905222204 | 90 | 61 | 0.0 | 0.0 | 0.00 | 0.02 | 0.02 | 62 | 1009.9 |
| 20260905221704 | 90 | 38 | 0.0 | 1.0 | 0.00 | 0.02 | 0.02 | 62 | 1009.8 |
| 20260905221204 | 90 | 231 | 0.0 | 3.0 | 0.00 | 0.02 | 0.02 | 61 | 1010.0 |
| 20260905220704 | 90 | 344 | 0.0 | 0.0 | 0.00 | 0.02 | 0.02 | 62 | 1009.9 |
| 20260905220204 | 90 | 2 | 0.0 | 0.0 | 0.00 | 0.02 | 0.02 | 62 | 1009.8 |
| 20260905215704 | 90 | 231 | 0.0 | 0.0 | 0.00 | 0.02 | 0.02 | 61 | 1009.7 |
| 20260905215204 | 90 | 214 | 1.0 | 3.0 | 0.00 | 0.02 | 0.02 | 61 | 1009.7 |
| 20260905214704 | 91 | 230 | 1.0 | 3.0 | 0.00 | 0.03 | 0.02 | 61 | 1009.6 |
| 20260905214204 | 91 | 294 | 1.0 | 3.0 | 0.00 | 0.04 | 0.02 | 61 | 1009.6 |
| 20260905213704 | 91 | 260 | 0.0 | 3.0 | 0.00 | 0.08 | 0.02 | 62 | 1009.6 |
| 20260905212704 | 90 | 238 | 2.0 | 5.0 | 0.00 | 0.11 | 0.02 | 61 | 1009.8 |
| 20260905212204 | 90 | 19 | 1.0 | 3.0 | 0.00 | 0.11 | 0.02 | 61 | 1009.9 |
| 20260905211705 | 90 | 232 | 0.0 | 1.0 | 0.00 | 0.11 | 0.02 | 61 | 1009.9 |
| 20260905211203 | 90 | 322 | 0.0 | 1.0 | 0.00 | 0.11 | 0.02 | 62 | 1010.0 |
| 20260905210704 | 90 | 330 | 1.0 | 3.0 | 0.00 | 0.11 | 0.02 | 62 | 1010.0 |
| 20260905210204 | 90 | 256 | 0.0 | 0.0 | 0.00 | 0.11 | 0.02 | 63 | 1010.0 |
| 20260905205704 | 90 | 229 | 0.0 | 1.0 | 0.00 | 0.11 | 0.02 | 62 | 1010.1 |
| 20260905205203 | 89 | 93 | 0.0 | 1.0 | 0.00 | 0.11 | 0.02 | 65 | 1010.1 |
| 20260905204705 | 89 | 124 | 0.0 | 1.0 | 0.00 | 0.11 | 0.02 | 63 | 1010.2 |
| 20260905204205 | 89 | 328 | 0.0 | 1.0 | 0.00 | 0.11 | 0.02 | 65 | 1010.3 |
| 20260905203704 | 89 | 355 | 0.0 | 2.0 | 0.00 | 0.11 | 0.02 | 63 | 1010.3 |
| 20260905203204 | 89 | 36 | 0.0 | 1.0 | 0.00 | 0.11 | 0.02 | 64 | 1010.3 |
| 20260905202704 | 89 | 350 | 0.0 | 0.0 | 0.00 | 0.11 | 0.02 | 64 | 1010.4 |
| 20260905202204 | 89 | 350 | 0.0 | 2.0 | 0.00 | 0.11 | 0.02 | 63 | 1010.4 |
| 20260905201705 | 89 | 303 | 1.0 | 3.0 | 0.00 | 0.11 | 0.02 | 63 | 1010.4 |
| 20260905201204 | 89 | 6 | 0.0 | 2.0 | 0.00 | 0.11 | 0.02 | 62 | 1010.4 |
| 20260905200705 | 89 | 347 | 0.0 | 2.0 | 0.00 | 0.11 | 0.02 | 62 | 1010.5 |
| 20260905200203 | 89 | 243 | 0.0 | 0.0 | 0.00 | 0.11 | 0.02 | 62 | 1010.7 |
| 20260905195705 | 89 | 307 | 1.0 | 2.0 | 0.00 | 0.11 | 0.02 | 62 | 1010.7 |
| 20260905195204 | 89 | 350 | 1.0 | 5.0 | 0.00 | 0.11 | 0.02 | 61 | 1010.8 |
| 20260905194705 | 89 | 223 | 2.0 | 3.0 | 0.00 | 0.11 | 0.02 | 60 | 1010.9 |
| 20260905194204 | 89 | 225 | 0.0 | 2.0 | 0.00 | 0.11 | 0.02 | 60 | 1010.9 |
| 20260905193706 | 89 | 350 | 0.0 | 2.0 | 0.00 | 0.11 | 0.02 | 61 | 1010.9 |
| 20260905192705 | 89 | 352 | 0.0 | 0.0 | 0.00 | 0.11 | 0.02 | 60 | 1011.1 |
| 20260905192204 | 90 | 17 | 0.0 | 3.0 | 0.00 | 0.11 | 0.02 | 59 | 1011.1 |
| 20260905191704 | 90 | 18 | 1.0 | 3.0 | 0.00 | 0.11 | 0.02 | 59 | 1011.2 |
| 20260905191204 | 90 | 37 | 0.0 | 1.0 | 0.00 | 0.11 | 0.02 | 59 | 1011.2 |
| 20260905190704 | 89 | 299 | 1.0 | 2.0 | 0.00 | 0.11 | 0.02 | 59 | 1011.3 |
| 20260905190204 | 89 | 288 | 1.0 | 3.0 | 0.00 | 0.11 | 0.02 | 60 | 1011.3 |
| 20260905185704 | 89 | 250 | 1.0 | 2.0 | 0.00 | 0.11 | 0.02 | 60 | 1011.4 |
| 20260905185204 | 89 | 5 | 1.0 | 2.0 | 0.00 | 0.11 | 0.02 | 59 | 1011.6 |
| 20260905184704 | 89 | 5 | 0.0 | 0.0 | 0.00 | 0.11 | 0.02 | 59 | 1011.5 |
| 20260905183705 | 89 | 188 | 0.0 | 2.0 | 0.00 | 0.11 | 0.02 | 57 | 1011.8 |
| 20260905183202 | 90 | 323 | 1.0 | 6.0 | 0.00 | 0.11 | 0.02 | 58 | 1011.9 |
| 20260905182703 | 90 | 216 | 1.0 | 3.0 | 0.00 | 0.11 | 0.02 | 58 | 1011.8 |
| 20260905181703 | 90 | 349 | 0.0 | 1.0 | 0.00 | 0.11 | 0.02 | 58 | 1011.7 |
| 20260905181202 | 89 | 213 | 1.0 | 3.0 | 0.00 | 0.11 | 0.02 | 58 | 1011.7 |
| 20260905180703 | 89 | 276 | 1.0 | 3.0 | 0.00 | 0.11 | 0.02 | 58 | 1011.7 |
| 20260905180204 | 89 | 252 | 1.0 | 3.0 | 0.00 | 0.11 | 0.02 | 58 | 1011.7 |
| 20260905175203 | 89 | 185 | 0.0 | 5.0 | 0.00 | 0.11 | 0.02 | 59 | 1011.7 |
| 20260905174703 | 89 | 172 | 0.0 | 2.0 | 0.00 | 0.11 | 0.02 | 60 | 1011.6 |
| 20260905174203 | 88 | 240 | 1.0 | 5.0 | 0.00 | 0.11 | 0.02 | 58 | 1011.6 |
| 20260905173204 | 88 | 172 | 1.0 | 5.0 | 0.00 | 0.11 | 0.02 | 59 | 1011.5 |
| 20260905172703 | 88 | 282 | 2.0 | 6.0 | 0.00 | 0.11 | 0.02 | 61 | 1011.5 |
| 20260905172203 | 87 | 217 | 2.0 | 6.0 | 0.00 | 0.11 | 0.02 | 60 | 1011.6 |
| 20260905171703 | 87 | 236 | 1.0 | 3.0 | 0.00 | 0.11 | 0.02 | 60 | 1011.7 |
| 20260905171203 | 87 | 248 | 1.0 | 3.0 | 0.00 | 0.11 | 0.02 | 62 | 1011.8 |
| 20260905170703 | 86 | 210 | 0.0 | 3.0 | 0.00 | 0.11 | 0.02 | 61 | 1012.0 |
| 20260905165703 | 86 | 338 | 0.0 | 2.0 | 0.00 | 0.11 | 0.02 | 61 | 1012.1 |
| 20260905165203 | 86 | 318 | 1.0 | 2.0 | 0.00 | 0.11 | 0.02 | 63 | 1012.3 |
| 20260905163703 | 85 | 281 | 1.0 | 5.0 | 0.00 | 0.11 | 0.02 | 62 | 1012.5 |
| 20260905163203 | 85 | 272 | 1.0 | 3.0 | 0.00 | 0.11 | 0.02 | 63 | 1012.6 |
| 20260905162703 | 84 | 276 | 1.0 | 5.0 | 0.00 | 0.11 | 0.02 | 63 | 1012.5 |
| 20260905162203 | 84 | 167 | 1.0 | 2.0 | 0.00 | 0.11 | 0.02 | 65 | 1012.6 |
| 20260905161703 | 84 | 128 | 0.0 | 2.0 | 0.00 | 0.11 | 0.02 | 64 | 1012.5 |
| 20260905161203 | 83 | 101 | 1.0 | 2.0 | 0.00 | 0.11 | 0.02 | 64 | 1012.5 |
| 20260905160704 | 83 | 126 | 0.0 | 2.0 | 0.01 | 0.11 | 0.02 | 66 | 1012.5 |
| 20260905160203 | 82 | 241 | 1.0 | 5.0 | 0.01 | 0.11 | 0.02 | 65 | 1012.5 |
| 20260905155202 | 82 | 173 | 0.0 | 2.0 | 0.01 | 0.11 | 0.02 | 67 | 1012.5 |
| 20260905154704 | 81 | 161 | 3.0 | 8.0 | 0.01 | 0.11 | 0.02 | 67 | 1012.5 |
| 20260905154204 | 81 | 246 | 2.0 | 5.0 | 0.01 | 0.11 | 0.02 | 68 | 1012.5 |
| 20260905153702 | 80 | 225 | 1.0 | 7.0 | 0.01 | 0.11 | 0.02 | 70 | 1012.4 |
| 20260905153203 | 80 | 235 | 5.0 | 9.0 | 0.01 | 0.11 | 0.02 | 69 | 1012.3 |
| 20260905152703 | 80 | 113 | 1.0 | 5.0 | 0.01 | 0.11 | 0.02 | 70 | 1012.2 |
| 20260905152202 | 80 | 216 | 3.0 | 9.0 | 0.01 | 0.11 | 0.02 | 71 | 1012.2 |
| 20260905151703 | 79 | 174 | 2.0 | 7.0 | 0.01 | 0.11 | 0.02 | 72 | 1012.2 |
| 20260905151202 | 79 | 234 | 3.0 | 7.0 | 0.01 | 0.11 | 0.02 | 70 | 1012.3 |
| 20260905150703 | 79 | 217 | 4.0 | 8.0 | 0.00 | 0.10 | 0.01 | 71 | 1012.3 |
| 20260905150203 | 79 | 176 | 0.0 | 6.0 | 0.00 | 0.10 | 0.01 | 72 | 1012.3 |
| 20260905145702 | 78 | 213 | 4.0 | 8.0 | 0.00 | 0.10 | 0.01 | 72 | 1012.3 |
| 20260905145204 | 78 | 219 | 3.0 | 7.0 | 0.00 | 0.10 | 0.01 | 72 | 1012.3 |
| 20260905143703 | 78 | 232 | 0.0 | 2.0 | 0.00 | 0.10 | 0.01 | 74 | 1012.2 |
| 20260905143202 | 77 | 170 | 0.0 | 3.0 | 0.00 | 0.10 | 0.01 | 74 | 1012.2 |
| 20260905142703 | 77 | 223 | 1.0 | 3.0 | 0.00 | 0.10 | 0.01 | 74 | 1012.2 |
| 20260905142203 | 77 | 231 | 1.0 | 3.0 | 0.00 | 0.10 | 0.01 | 75 | 1012.2 |
| 20260905141703 | 76 | 189 | 1.0 | 6.0 | 0.00 | 0.10 | 0.01 | 75 | 1012.3 |
| 20260905141203 | 76 | 229 | 2.0 | 6.0 | 0.00 | 0.10 | 0.01 | 76 | 1012.5 |
| 20260905140703 | 76 | 172 | 1.0 | 3.0 | 0.00 | 0.10 | 0.01 | 77 | 1012.5 |
| 20260905140203 | 75 | 213 | 1.0 | 5.0 | 0.00 | 0.10 | 0.01 | 77 | 1012.6 |
| 20260905135203 | 74 | 213 | 1.0 | 5.0 | 0.00 | 0.10 | 0.01 | 79 | 1013.3 |
| 20260905134704 | 74 | 198 | 0.0 | 5.0 | 0.00 | 0.10 | 0.01 | 79 | 1013.3 |
| 20260905134203 | 73 | 184 | 0.0 | 3.0 | 0.00 | 0.10 | 0.01 | 80 | 1013.6 |
| 20260905133703 | 73 | 62 | 0.0 | 2.0 | 0.00 | 0.10 | 0.01 | 81 | 1013.7 |
| 20260905133202 | 73 | 49 | 1.0 | 3.0 | 0.00 | 0.10 | 0.01 | 81 | 1013.7 |
| 20260905132203 | 72 | 36 | 1.0 | 5.0 | 0.00 | 0.10 | 0.01 | 82 | 1013.7 |
| 20260905131703 | 72 | 141 | 0.0 | 2.0 | 0.00 | 0.10 | 0.01 | 83 | 1013.8 |
| 20260905131203 | 72 | 111 | 0.0 | 1.0 | 0.00 | 0.10 | 0.01 | 83 | 1014.0 |
| 20260905130703 | 72 | 112 | 0.0 | 2.0 | 0.00 | 0.10 | 0.01 | 82 | 1014.0 |
| 20260905130204 | 71 | 99 | 0.0 | 3.0 | 0.00 | 0.10 | 0.01 | 82 | 1013.8 |
| 20260905125703 | 71 | 78 | 1.0 | 6.0 | 0.00 | 0.10 | 0.01 | 82 | 1013.7 |
| 20260905125203 | 71 | 90 | 0.0 | 3.0 | 0.00 | 0.10 | 0.01 | 83 | 1013.6 |
| 20260905124703 | 71 | 25 | 0.0 | 0.0 | 0.00 | 0.10 | 0.01 | 84 | 1013.6 |
| 20260905123204 | 70 | 78 | 0.0 | 0.0 | 0.00 | 0.10 | 0.01 | 85 | 1013.7 |
| 20260905122203 | 70 | 58 | 0.0 | 0.0 | 0.00 | 0.10 | 0.01 | 86 | 1013.7 |
| 20260905121703 | 70 | 17 | 0.0 | 0.0 | 0.00 | 0.10 | 0.01 | 86 | 1013.7 |
| 20260905121202 | 70 | 61 | 0.0 | 0.0 | 0.00 | 0.10 | 0.01 | 85 | 1013.7 |
| 20260905120703 | 70 | 96 | 0.0 | 2.0 | 0.01 | 0.10 | 0.01 | 85 | 1013.6 |
| 20260905120203 | 70 | 81 | 0.0 | 1.0 | 0.01 | 0.10 | 0.01 | 86 | 1013.5 |
| 20260905115703 | 70 | 130 | 0.0 | 0.0 | 0.01 | 0.10 | 0.01 | 86 | 1013.6 |
| 20260905115203 | 70 | 43 | 0.0 | 0.0 | 0.01 | 0.10 | 0.01 | 86 | 1013.7 |
| 20260905114703 | 70 | 15 | 0.0 | 3.0 | 0.01 | 0.10 | 0.01 | 86 | 1013.6 |
| 20260905114203 | 70 | 39 | 1.0 | 3.0 | 0.01 | 0.10 | 0.01 | 86 | 1013.6 |
| 20260905113704 | 70 | 67 | 0.0 | 2.0 | 0.01 | 0.10 | 0.01 | 86 | 1013.6 |
| 20260905113203 | 70 | 70 | 0.0 | 1.0 | 0.01 | 0.10 | 0.01 | 86 | 1013.7 |
| 20260905112703 | 70 | 112 | 0.0 | 1.0 | 0.01 | 0.10 | 0.01 | 85 | 1013.7 |
| 20260905112203 | 70 | 70 | 0.0 | 0.0 | 0.01 | 0.10 | 0.01 | 85 | 1013.8 |
| 20260905111702 | 71 | 328 | 0.0 | 1.0 | 0.01 | 0.10 | 0.01 | 85 | 1013.9 |
| 20260905111203 | 71 | 23 | 1.0 | 3.0 | 0.01 | 0.10 | 0.01 | 83 | 1014.1 |
| 20260905110703 | 71 | 155 | 1.0 | 3.0 | 0.00 | 0.09 | 0.00 | 83 | 1014.0 |
| 20260905110203 | 71 | 15 | 2.0 | 5.0 | 0.00 | 0.09 | 0.00 | 81 | 1014.1 |
| 20260905105703 | 71 | 6 | 1.0 | 5.0 | 0.00 | 0.09 | 0.00 | 81 | 1014.1 |
| 20260905105203 | 71 | 7 | 1.0 | 5.0 | 0.00 | 0.09 | 0.00 | 81 | 1014.1 |
| 20260905104203 | 72 | 25 | 1.0 | 6.0 | 0.00 | 0.09 | 0.00 | 80 | 1014.2 |
| 20260905103702 | 72 | 36 | 1.0 | 3.0 | 0.00 | 0.09 | 0.00 | 79 | 1014.0 |
| 20260905102203 | 73 | 34 | 3.0 | 8.0 | 0.00 | 0.09 | 0.00 | 78 | 1013.5 |
| 20260905101204 | 73 | 34 | 6.0 | 9.0 | 0.00 | 0.09 | 0.00 | 80 | 1013.8 |
| 20260905100703 | 73 | 28 | 6.0 | 12.0 | 0.00 | 0.09 | 0.00 | 85 | 1014.0 |
| 20260905100203 | 74 | 42 | 5.0 | 9.0 | 0.00 | 0.09 | 0.00 | 89 | 1013.8 |
| 20260905095703 | 74 | 0 | 1.0 | 5.0 | 0.00 | 0.09 | 0.00 | 91 | 1012.7 |
| 20260905095202 | 74 | 90 | 0.0 | 0.0 | 0.00 | 0.09 | 0.00 | 91 | 1012.0 |
| 20260905094702 | 74 | 90 | 0.0 | 0.0 | 0.00 | 0.09 | 0.00 | 91 | 1011.8 |
| 20260905094203 | 74 | 89 | 0.0 | 0.0 | 0.00 | 0.09 | 0.00 | 90 | 1011.6 |
| 20260905093703 | 74 | 88 | 0.0 | 0.0 | 0.00 | 0.09 | 0.00 | 90 | 1011.6 |
| 20260905092702 | 74 | 90 | 0.0 | 0.0 | 0.00 | 0.09 | 0.00 | 90 | 1011.6 |
| 20260905092204 | 74 | 89 | 0.0 | 0.0 | 0.00 | 0.09 | 0.00 | 90 | 1011.7 |
| 20260905091705 | 74 | 89 | 0.0 | 0.0 | 0.00 | 0.09 | 0.00 | 90 | 1011.6 |
| 20260905091202 | 74 | 94 | 0.0 | 0.0 | 0.00 | 0.09 | 0.00 | 90 | 1011.6 |
| 20260905090703 | 74 | 94 | 0.0 | 0.0 | 0.00 | 0.09 | 0.00 | 90 | 1011.7 |
| 20260905090203 | 74 | 94 | 0.0 | 0.0 | 0.00 | 0.09 | 0.00 | 90 | 1011.7 |
| 20260905085705 | 74 | 94 | 0.0 | 0.0 | 0.00 | 0.09 | 0.00 | 90 | 1011.6 |
| 20260905085202 | 74 | 94 | 0.0 | 0.0 | 0.00 | 0.09 | 0.00 | 90 | 1011.5 |
| 20260905084703 | 74 | 94 | 0.0 | 0.0 | 0.00 | 0.09 | 0.00 | 89 | 1011.6 |
| 20260905084203 | 74 | 94 | 0.0 | 0.0 | 0.00 | 0.09 | 0.00 | 89 | 1011.7 |
| 20260905083204 | 74 | 96 | 0.0 | 0.0 | 0.00 | 0.09 | 0.00 | 90 | 1011.7 |
| 20260905082703 | 74 | 97 | 0.0 | 0.0 | 0.00 | 0.09 | 0.00 | 90 | 1011.8 |
| 20260905082203 | 74 | 97 | 0.0 | 0.0 | 0.00 | 0.09 | 0.00 | 90 | 1011.8 |
| 20260905081703 | 74 | 97 | 0.0 | 0.0 | 0.00 | 0.09 | 0.00 | 90 | 1011.8 |
| 20260905081204 | 74 | 97 | 0.0 | 0.0 | 0.00 | 0.09 | 0.00 | 90 | 1011.8 |
| 20260905080703 | 74 | 97 | 0.0 | 0.0 | 0.00 | 0.09 | 0.00 | 90 | 1011.8 |
| 20260905080203 | 75 | 97 | 0.0 | 0.0 | 0.00 | 0.09 | 0.00 | 90 | 1011.7 |
| 20260905075704 | 75 | 97 | 0.0 | 0.0 | 0.00 | 0.09 | 0.00 | 90 | 1011.6 |
| 20260905075203 | 75 | 98 | 0.0 | 0.0 | 0.00 | 0.09 | 0.00 | 89 | 1011.6 |
| 20260905074703 | 75 | 98 | 0.0 | 0.0 | 0.00 | 0.09 | 0.00 | 89 | 1011.4 |
| 20260905073703 | 75 | 98 | 0.0 | 0.0 | 0.00 | 0.09 | 0.00 | 89 | 1011.2 |
| 20260905073202 | 75 | 98 | 0.0 | 0.0 | 0.00 | 0.09 | 0.00 | 89 | 1011.2 |
| 20260905072703 | 75 | 98 | 0.0 | 0.0 | 0.00 | 0.09 | 0.00 | 89 | 1011.1 |
| 20260905072203 | 75 | 98 | 0.0 | 0.0 | 0.00 | 0.09 | 0.00 | 89 | 1011.2 |
| 20260905071703 | 75 | 100 | 0.0 | 0.0 | 0.00 | 0.09 | 0.00 | 89 | 1011.2 |
| 20260905071203 | 75 | 100 | 0.0 | 0.0 | 0.00 | 0.09 | 0.00 | 89 | 1011.1 |
| 20260905070704 | 75 | 100 | 0.0 | 0.0 | 0.00 | 0.09 | 0.00 | 89 | 1011.1 |
| 20260905070204 | 75 | 101 | 0.0 | 0.0 | 0.00 | 0.09 | 0.00 | 88 | 1011.0 |
| 20260905065203 | 75 | 101 | 0.0 | 0.0 | 0.00 | 0.09 | 0.00 | 89 | 1011.1 |
| 20260905064204 | 75 | 89 | 0.0 | 0.0 | 0.00 | 0.09 | 0.00 | 88 | 1011.4 |
| 20260905063703 | 75 | 90 | 0.0 | 0.0 | 0.00 | 0.09 | 0.00 | 88 | 1011.5 |
| 20260905062704 | 75 | 89 | 0.0 | 0.0 | 0.00 | 0.09 | 0.00 | 88 | 1011.7 |
| 20260905061703 | 75 | 110 | 0.0 | 0.0 | 0.00 | 0.09 | 0.00 | 88 | 1011.8 |
| 20260905061204 | 75 | 110 | 0.0 | 1.0 | 0.00 | 0.09 | 0.00 | 88 | 1011.9 |
| 20260905060203 | 75 | 90 | 0.0 | 0.0 | 0.00 | 0.09 | 0.00 | 88 | 1012.0 |
| 20260905055703 | 75 | 91 | 0.0 | 0.0 | 0.00 | 0.09 | 0.00 | 88 | 1012.1 |
| 20260905055203 | 75 | 91 | 0.0 | 2.0 | 0.00 | 0.09 | 0.00 | 88 | 1012.1 |
| 20260905054704 | 75 | 95 | 0.0 | 0.0 | 0.00 | 0.09 | 0.00 | 88 | 1012.1 |
| 20260905054204 | 75 | 95 | 0.0 | 0.0 | 0.00 | 0.09 | 0.00 | 88 | 1012.2 |
| 20260905053204 | 75 | 95 | 0.0 | 0.0 | 0.00 | 0.09 | 0.00 | 88 | 1012.3 |
| 20260905052703 | 75 | 95 | 0.0 | 0.0 | 0.00 | 0.09 | 0.00 | 88 | 1012.4 |
| 20260905052204 | 75 | 95 | 0.0 | 0.0 | 0.00 | 0.09 | 0.00 | 88 | 1012.4 |
| 20260905051703 | 75 | 98 | 0.0 | 2.0 | 0.00 | 0.09 | 0.00 | 88 | 1012.5 |
| 20260905051203 | 75 | 93 | 0.0 | 0.0 | 0.00 | 0.09 | 0.00 | 88 | 1012.5 |
| 20260905050203 | 75 | 133 | 0.0 | 1.0 | 0.00 | 0.09 | 0.00 | 88 | 1012.6 |
| 20260905045703 | 75 | 17 | 0.0 | 1.0 | 0.00 | 0.09 | 0.00 | 88 | 1012.6 |
| 20260905045203 | 75 | 13 | 0.0 | 0.0 | 0.00 | 0.09 | 0.00 | 88 | 1012.7 |
| 20260905044705 | 75 | 13 | 0.0 | 0.0 | 0.00 | 0.09 | 0.00 | 88 | 1012.6 |
| 20260905044204 | 75 | 13 | 0.0 | 0.0 | 0.00 | 0.09 | 0.00 | 88 | 1012.6 |
| 20260905043704 | 75 | 13 | 0.0 | 0.0 | 0.00 | 0.09 | 0.00 | 88 | 1012.6 |
| 20260905043204 | 75 | 13 | 0.0 | 0.0 | 0.00 | 0.09 | 0.00 | 88 | 1012.6 |
| 20260905042703 | 75 | 13 | 0.0 | 0.0 | 0.00 | 0.09 | 0.00 | 87 | 1012.5 |
| 20260905042204 | 75 | 13 | 0.0 | 0.0 | 0.00 | 0.09 | 0.00 | 87 | 1012.6 |
| 20260905041704 | 75 | 13 | 0.0 | 0.0 | 0.00 | 0.09 | 0.00 | 87 | 1012.6 |
| 20260905041204 | 76 | 13 | 0.0 | 0.0 | 0.00 | 0.09 | 0.00 | 87 | 1012.6 |
| 20260905040704 | 76 | 13 | 0.0 | 0.0 | 0.00 | 0.09 | 0.00 | 87 | 1012.6 |
| 20260905040203 | 76 | 13 | 0.0 | 0.0 | 0.00 | 0.09 | 0.00 | 88 | 1012.6 |
| 20260905035703 | 76 | 13 | 0.0 | 0.0 | 0.00 | 0.09 | 0.09 | 88 | 1012.6 |
| 20260905035203 | 76 | 13 | 0.0 | 0.0 | 0.00 | 0.09 | 0.09 | 88 | 1012.6 |
| 20260905034203 | 76 | 13 | 0.0 | 0.0 | 0.00 | 0.09 | 0.09 | 88 | 1012.8 |
| 20260905033203 | 76 | 13 | 0.0 | 0.0 | 0.00 | 0.09 | 0.09 | 88 | 1012.8 |
| 20260905032703 | 76 | 13 | 0.0 | 0.0 | 0.00 | 0.09 | 0.09 | 89 | 1012.7 |
| 20260905032203 | 76 | 13 | 0.0 | 0.0 | 0.00 | 0.09 | 0.09 | 88 | 1012.7 |
| 20260905031703 | 76 | 13 | 0.0 | 0.0 | 0.00 | 0.09 | 0.09 | 89 | 1012.7 |
| 20260905030703 | 76 | 13 | 0.0 | 0.0 | 0.00 | 0.09 | 0.09 | 89 | 1012.8 |
| 20260905030203 | 76 | 13 | 0.0 | 0.0 | 0.00 | 0.09 | 0.09 | 89 | 1012.7 |
| 20260905025703 | 76 | 13 | 0.0 | 0.0 | 0.00 | 0.09 | 0.09 | 88 | 1012.6 |
| 20260905024703 | 76 | 13 | 0.0 | 0.0 | 0.00 | 0.09 | 0.09 | 88 | 1012.6 |
| 20260905024204 | 76 | 13 | 0.0 | 0.0 | 0.00 | 0.09 | 0.09 | 88 | 1012.6 |
| 20260905023703 | 76 | 13 | 0.0 | 0.0 | 0.00 | 0.09 | 0.09 | 88 | 1012.5 |
| 20260905023204 | 77 | 13 | 0.0 | 0.0 | 0.00 | 0.09 | 0.09 | 88 | 1012.6 |
| 20260905022703 | 77 | 13 | 0.0 | 0.0 | 0.00 | 0.09 | 0.09 | 88 | 1012.5 |
| 20260905022203 | 77 | 13 | 0.0 | 0.0 | 0.00 | 0.09 | 0.09 | 87 | 1012.5 |
| 20260905021703 | 77 | 13 | 0.0 | 0.0 | 0.00 | 0.09 | 0.09 | 86 | 1012.6 |
| 20260905021203 | 77 | 13 | 0.0 | 0.0 | 0.00 | 0.09 | 0.09 | 86 | 1012.6 |
| 20260905020704 | 77 | 13 | 0.0 | 0.0 | 0.00 | 0.09 | 0.09 | 86 | 1012.6 |
| 20260905020203 | 77 | 13 | 0.0 | 0.0 | 0.00 | 0.09 | 0.09 | 86 | 1012.6 |
| 20260905015703 | 77 | 13 | 0.0 | 0.0 | 0.00 | 0.09 | 0.09 | 86 | 1012.4 |
| 20260905014703 | 77 | 13 | 0.0 | 0.0 | 0.00 | 0.09 | 0.09 | 85 | 1012.2 |
| 20260905014204 | 77 | 13 | 0.0 | 0.0 | 0.00 | 0.09 | 0.09 | 85 | 1012.2 |
| 20260905013204 | 77 | 13 | 0.0 | 0.0 | 0.00 | 0.09 | 0.09 | 84 | 1012.1 |
| 20260905012704 | 77 | 13 | 0.0 | 0.0 | 0.00 | 0.09 | 0.09 | 84 | 1012.1 |
| 20260905012204 | 77 | 13 | 0.0 | 0.0 | 0.00 | 0.09 | 0.09 | 84 | 1012.1 |
| 20260905011703 | 77 | 13 | 0.0 | 0.0 | 0.00 | 0.09 | 0.09 | 84 | 1012.0 |
| 20260905011204 | 77 | 13 | 0.0 | 0.0 | 0.00 | 0.09 | 0.09 | 84 | 1012.0 |
| 20260905005703 | 77 | 13 | 0.0 | 0.0 | 0.00 | 0.09 | 0.09 | 84 | 1011.9 |
| 20260905005204 | 77 | 13 | 0.0 | 0.0 | 0.00 | 0.09 | 0.09 | 85 | 1012.0 |
| 20260905004704 | 78 | 13 | 0.0 | 0.0 | 0.00 | 0.09 | 0.09 | 85 | 1011.9 |
| 20260905004204 | 78 | 13 | 0.0 | 0.0 | 0.00 | 0.09 | 0.09 | 85 | 1011.8 |
| 20260905003204 | 78 | 13 | 0.0 | 0.0 | 0.00 | 0.09 | 0.09 | 84 | 1011.9 |
| 20260905002204 | 78 | 13 | 0.0 | 0.0 | 0.00 | 0.09 | 0.09 | 84 | 1011.9 |
| 20260905001703 | 78 | 13 | 0.0 | 0.0 | 0.00 | 0.09 | 0.09 | 84 | 1011.9 |
| 20260905001203 | 78 | 13 | 0.0 | 0.0 | 0.00 | 0.09 | 0.09 | 83 | 1011.9 |
| 20260905000704 | 78 | 13 | 0.0 | 0.0 | 0.00 | 0.09 | 0.09 | 83 | 1011.8 |
| 20260905000204 | 78 | 13 | 0.0 | 0.0 | 0.00 | 0.09 | 0.09 | 83 | 1011.7 |
| 20260904235204 | 78 | 13 | 0.0 | 0.0 | 0.00 | 0.09 | 0.09 | 82 | 1012.0 |
| 20260904234704 | 78 | 13 | 0.0 | 0.0 | 0.00 | 0.09 | 0.09 | 82 | 1011.9 |
| 20260904234203 | 78 | 13 | 0.0 | 0.0 | 0.00 | 0.09 | 0.09 | 82 | 1011.8 |
| 20260904233704 | 78 | 13 | 0.0 | 0.0 | 0.00 | 0.09 | 0.09 | 82 | 1011.9 |
| 20260904233203 | 78 | 13 | 0.0 | 0.0 | 0.00 | 0.09 | 0.09 | 82 | 1011.9 |
| 20260904232703 | 78 | 13 | 0.0 | 0.0 | 0.00 | 0.09 | 0.09 | 82 | 1011.8 |
| 20260904232203 | 78 | 13 | 0.0 | 0.0 | 0.00 | 0.09 | 0.09 | 83 | 1011.8 |
| 20260904231703 | 78 | 9 | 0.0 | 0.0 | 0.00 | 0.09 | 0.09 | 82 | 1011.7 |
| 20260904231203 | 78 | 9 | 0.0 | 0.0 | 0.00 | 0.09 | 0.09 | 83 | 1011.8 |